#timestamp,LO_Frequency,Hit,Temp,Hum 
1479927615.4,286047038.0,N,0.0,0.0
1479927635.3,286047037.3,N,0.0,0.0
1479927655.1,286047036.7,N,0.0,0.0
1479927656.0,286047036.7,N,0.0,0.0
1479927675.8,286047036.6,N,0.0,0.0
1479927695.7,286047038.3,N,0.0,0.0
1479927715.5,286047038.7,N,0.0,0.0
1479927735.3,286047039.4,N,0.0,0.0
1479927755.2,286047038.9,N,0.0,0.0
1479927775.0,286047038.6,N,0.0,0.0
1479927775.9,286047038.6,N,0.0,0.0
1479927795.8,286047038.3,N,0.0,0.0
1479927815.6,286047039.2,N,0.0,0.0
1479927835.4,286047036.5,N,0.0,0.0
1479927855.3,286047037.0,N,0.0,0.0
1479927875.1,286047036.5,N,0.0,0.0
1479927895.9,286047038.9,N,0.0,0.0
1479927915.7,286047039.3,N,0.0,0.0
1479927935.5,286047038.6,N,0.0,0.0
1479927955.4,286047040.6,N,0.0,0.0
1479927975.2,286047042.8,N,0.0,0.0
1479927995.0,286047042.7,N,0.0,0.0
1479927995.9,286047042.7,N,0.0,0.0
1479928015.8,286047041.6,N,0.0,0.0
1479928035.6,286047044.3,N,0.0,0.0
1479928055.5,286047044.4,N,0.0,0.0
1479928075.3,286047041.4,N,0.0,0.0
1479928095.1,286047041.3,N,0.0,0.0
1479928115.9,286047043.9,N,0.0,0.0
1479928135.7,286047042.6,N,0.0,0.0
1479928155.5,286047041.1,N,0.0,0.0
1479928175.4,286047039.4,N,0.0,0.0
1479928195.2,286047036.8,N,0.0,0.0
1479928215.1,286047037.1,N,0.0,0.0
1479928216.0,286047037.1,N,0.0,0.0
1479928235.8,286047039.0,N,0.0,0.0
1479928255.6,286047038.9,N,0.0,0.0
1479928275.5,286047038.6,N,0.0,0.0
1479928295.3,286047040.3,N,0.0,0.0
1479928315.1,286047039.4,N,0.0,0.0
1479928335.9,286047039.1,N,0.0,0.0
1479928355.7,286047039.4,N,0.0,0.0
1479928375.6,286047036.5,N,0.0,0.0
1479928395.4,286047037.9,N,0.0,0.0
1479928415.2,286047037.7,N,0.0,0.0
1479928435.1,286047037.8,N,0.0,0.0
1479928436.0,286047037.8,N,0.0,0.0
1479928455.8,286047035.6,N,0.0,0.0
1479928475.7,286047033.4,N,0.0,0.0
1479928495.5,286047036.4,N,0.0,0.0
1479928515.3,286047036.1,N,0.0,0.0
1479928535.2,286047037.1,N,0.0,0.0
1479928555.9,286047037.2,N,0.0,0.0
1479928575.7,286047036.9,N,0.0,0.0
1479928595.6,286047037.0,N,0.0,0.0
1479928615.4,286047039.0,N,0.0,0.0
1479928635.3,286047039.1,N,0.0,0.0
1479928655.1,286047038.0,N,0.0,0.0
1479928656.0,286047038.0,N,0.0,0.0
1479928675.8,286047035.0,N,0.0,0.0
1479928695.7,286047035.4,N,0.0,0.0
1479928715.5,286047035.2,N,0.0,0.0
1479928735.3,286047033.9,N,0.0,0.0
1479928755.2,286047031.8,N,0.0,0.0
1479928775.0,286047032.0,N,0.0,0.0
1479928775.9,286047032.0,N,0.0,0.0
1479928795.8,286047034.8,N,0.0,0.0
1479928815.6,286047032.6,N,0.0,0.0
1479928835.4,286047032.5,N,0.0,0.0
1479928855.3,286047032.9,N,0.0,0.0
1479928875.1,286047031.1,N,0.0,0.0
1479928895.9,286047029.6,N,0.0,0.0
1479928915.7,286047028.1,N,0.0,0.0
1479928935.5,286047025.3,N,0.0,0.0
1479928955.4,286047025.6,N,0.0,0.0
1479928975.2,286047026.2,N,0.0,0.0
1479928995.0,286047023.7,N,0.0,0.0
1479928996.0,286047023.7,N,0.0,0.0
1479929015.8,286047028.3,N,0.0,0.0
1479929035.6,286047028.0,N,0.0,0.0
1479929055.5,286047025.4,N,0.0,0.0
1479929075.3,286047026.1,N,0.0,0.0
1479929095.1,286047026.1,N,0.0,0.0
1479929115.9,286047023.8,N,0.0,0.0
1479929135.7,286047022.2,N,0.0,0.0
1479929155.6,286047023.5,N,0.0,0.0
1479929175.4,286047019.2,N,0.0,0.0
1479929195.2,286047017.9,N,0.0,0.0
1479929215.1,286047016.2,N,0.0,0.0
1479929216.0,286047016.2,N,0.0,0.0
1479929235.8,286047014.1,N,0.0,0.0
1479929255.6,286047014.1,N,0.0,0.0
1479929275.5,286047014.3,N,0.0,0.0
1479929295.3,286047013.1,N,0.0,0.0
1479929315.2,286047011.6,N,0.0,0.0
1479929335.9,286047012.4,N,0.0,0.0
1479929355.7,286047009.7,N,0.0,0.0
1479929375.6,286047010.0,N,0.0,0.0
1479929395.4,286047010.3,N,0.0,0.0
1479929415.3,286047010.8,N,0.0,0.0
1479929435.1,286047010.3,N,0.0,0.0
1479929436.0,286047010.3,N,0.0,0.0
1479929455.8,286047010.4,N,0.0,0.0
1479929475.7,286047008.5,N,0.0,0.0
1479929495.5,286047006.7,N,0.0,0.0
1479929515.3,286047004.9,N,0.0,0.0
1479929535.2,286047005.8,N,0.0,0.0
1479929555.0,286047005.5,N,0.0,0.0
1479929555.9,286047005.5,N,0.0,0.0
1479929575.8,286047003.0,N,0.0,0.0
1479929595.6,286047003.3,N,0.0,0.0
1479929615.4,286047003.2,N,0.0,0.0
1479929635.3,286047003.7,N,0.0,0.0
1479929655.1,286047003.6,N,0.0,0.0
1479929675.9,286047001.7,N,0.0,0.0
1479929695.7,286047001.6,N,0.0,0.0
1479929715.5,286047001.3,N,0.0,0.0
1479929735.4,286047002.1,N,0.0,0.0
1479929755.2,286047002.5,N,0.0,0.0
1479929775.0,286046999.8,N,0.0,0.0
1479929776.0,286046999.8,N,0.0,0.0
1479929795.8,286046999.9,N,0.0,0.0
1479929815.6,286047000.4,N,0.0,0.0
1479929835.5,286046998.7,N,0.0,0.0
1479929855.3,286046998.8,N,0.0,0.0
1479929875.1,286046999.4,N,0.0,0.0
1479929895.9,286046999.3,N,0.0,0.0
1479929915.7,286046999.5,N,0.0,0.0
1479929935.6,286046997.2,N,0.0,0.0
1479929955.4,286046997.5,N,0.0,0.0
1479929975.2,286046997.5,N,0.0,0.0
1479929995.1,286046995.4,N,0.0,0.0
1479929996.0,286046995.4,N,0.0,0.0
1479930015.8,286046996.2,N,0.0,0.0
1479930035.7,286046993.7,N,0.0,0.0
1479930055.5,286046994.2,N,0.0,0.0
1479930075.3,286046994.6,N,0.0,0.0
1479930095.2,286046994.8,N,0.0,0.0
1479930115.0,286046992.3,N,0.0,0.0
1479930115.9,286046992.3,N,0.0,0.0
1479930135.8,286046992.0,N,0.0,0.0
1479930155.6,286046994.4,N,0.0,0.0
1479930175.4,286046994.5,N,0.0,0.0
1479930195.3,286046994.1,N,0.0,0.0
1479930215.1,286046994.3,N,0.0,0.0
1479930235.8,286046994.4,N,0.0,0.0
1479930255.7,286046991.8,N,0.0,0.0
1479930275.5,286046992.0,N,0.0,0.0
1479930295.4,286046992.5,N,0.0,0.0
1479930315.2,286046990.2,N,0.0,0.0
1479930335.0,286046990.9,N,0.0,0.0
1479930335.9,286046990.9,N,0.0,0.0
1479930355.8,286046991.2,N,0.0,0.0
1479930375.6,286046988.7,N,0.0,0.0
1479930395.5,286046988.8,N,0.0,0.0
1479930415.3,286046989.0,N,0.0,0.0
1479930435.1,286046991.1,N,0.0,0.0
1479930455.9,286046991.3,N,0.0,0.0
1479930475.7,286046991.5,N,0.0,0.0
1479930495.5,286046991.6,N,0.0,0.0
1479930515.4,286046991.2,N,0.0,0.0
1479930535.2,286046991.1,N,0.0,0.0
1479930555.1,286046991.3,N,0.0,0.0
1479930556.0,286046991.3,N,0.0,0.0
1479930575.8,286046991.3,N,0.0,0.0
1479930595.6,286046991.1,N,0.0,0.0
1479930615.5,286046991.2,N,0.0,0.0
1479930635.3,286046988.6,N,0.0,0.0
1479930655.1,286046991.2,N,0.0,0.0
1479930675.9,286046991.3,N,0.0,0.0
1479930695.7,286046991.4,N,0.0,0.0
1479930715.6,286046991.0,N,0.0,0.0
1479930735.4,286046990.9,N,0.0,0.0
1479930755.2,286046990.8,N,0.0,0.0
1479930775.1,286046992.8,N,0.0,0.0
1479930776.0,286046992.8,N,0.0,0.0
1479930795.8,286046992.3,N,0.0,0.0
1479930815.7,286046994.8,N,0.0,0.0
1479930835.5,286046994.2,N,0.0,0.0
1479930855.3,286046994.3,N,0.0,0.0
1479930875.2,286046993.8,N,0.0,0.0
1479930895.0,286046996.4,N,0.0,0.0
1479930895.9,286046996.4,N,0.0,0.0
1479930915.8,286046996.0,N,0.0,0.0
1479930935.6,286046993.6,N,0.0,0.0
1479930955.4,286046994.0,N,0.0,0.0
1479930975.3,286046994.8,N,0.0,0.0
1479930995.1,286046991.8,N,0.0,0.0
1479931015.8,286046991.7,N,0.0,0.0
1479931035.7,286046994.3,N,0.0,0.0
1479931055.5,286046991.7,N,0.0,0.0
1479931075.4,286046992.1,N,0.0,0.0
1479931095.2,286046994.1,N,0.0,0.0
1479931115.0,286046994.1,N,0.0,0.0
1479931115.9,286046994.1,N,0.0,0.0
1479931135.8,286046993.4,N,0.0,0.0
1479931155.6,286046995.9,N,0.0,0.0
1479931175.5,286046996.4,N,0.0,0.0
1479931195.3,286046993.3,N,0.0,0.0
